This demonstration page uses our WeatherBlox Daily Observations layout. Learn more.

Left ArrowRight Arrow

39.08367, -84.50855

Hourly Observations for April 10, 2017

Temp ( °F °C ) Dew Point ( °F °C ) Humidity (%) Winds ( mph kmh ) Pressure ( in mb ) Visibility ( mi km ) Precip ( " mm )
12:53 am 00:53 Clear 62 16.7 41 5 46 46 SSW 9 15 29.95 1014 10 16 N/A
1:53 am 01:53 Clear 61 16.1 40 4.4 46 46 SSW 9 15 29.95 1014 10 16 N/A
2:53 am 02:53 Clear 59 15 41 5 51 51 SSW 8 13 29.96 1015 10 16 N/A
3:53 am 03:53 Clear 59 15 40 4.4 49 49 SSW 9 15 29.97 1015 10 16 N/A
4:53 am 04:53 Clear 58 14.4 41 5 53 53 S 9 15 29.98 1015 10 16 N/A
5:53 am 05:53 Clear 61 16.1 40 4.4 46 46 S 10 17 29.99 1016 10 16 N/A
6:53 am 06:53 Clear 59 15 41 5 51 51 SSW 10 17 30.00 1016 10 16 N/A
7:53 am 07:53 Sunny 57 13.9 42 5.6 58 58 SSW 6 9 30.05 1018 10 16 N/A
8:53 am 08:53 Sunny 64 17.8 45 7.2 50 50 S 12 19 30.06 1018 10 16 N/A
9:53 am 09:53 Sunny 69 20.6 49 9.4 49 49 SSW 18 30 30.07 1018 10 16 N/A
10:53 am 10:53 Sunny 72 22.2 52 11.1 50 50 SW 20 31 30.08 1019 10 16 N/A
11:53 am 11:53 Sunny 73 22.8 54 12.2 51 51 SSW 20 31 30.09 1019 10 16 N/A
12:53 pm 12:53 Sunny 74 23.3 54 12.2 50 50 S 20 31 30.07 1018 10 16 N/A
1:53 pm 13:53 Sunny 76 24.4 53 11.7 45 45 SSW 21 33 30.06 1018 10 16 N/A
2:53 pm 14:53 Sunny 77 25 48 8.9 36 36 SSW 21 33 30.04 1017 10 16 N/A
3:53 pm 15:53 Sunny 78 25.6 49 9.4 36 36 SSW 21 33 30.00 1016 10 16 N/A
4:53 pm 16:53 Sunny 78 25.6 50 10 37 37 SSW 17 28 29.98 1015 10 16 N/A
5:53 pm 17:53 Sunny 76 24.4 46 7.8 35 35 SSW 20 31 30.01 1016 10 16 N/A
6:53 pm 18:53 Sunny 75 23.9 46 7.8 36 36 SSW 13 20 30.02 1017 10 16 N/A
7:53 pm 19:53 Sunny 69 20.6 49 9.4 49 49 SSW 9 15 30.04 1017 10 16 N/A
8:53 pm 20:53 Clear 66 18.9 47 8.3 50 50 SSW 7 11 30.03 1017 10 16 N/A
9:53 pm 21:53 Clear 61 16.1 48 8.9 63 63 SSW 10 17 30.04 1017 10 16 N/A
10:53 pm 22:53 Clear 71 21.7 45 7.2 39 39 SW 16 26 30.05 1018 10 16 N/A
11:53 pm 23:53 Clear 67 19.4 46 7.8 47 47 SSW 13 20 30.06 1018 10 16 N/A

Powered by AerisWeather